Theta_e
318 318 317 316 316 318 321 321 323 322 320 321 320 321 317 316 316 316 318 317 317 318 316 320 328 328 324 324 326 326 327 333 332 328 329 329 329 330 331 331 330 328 326 330 333 333 333 334 334 333 331 328 322 320 320 315 312 311 311 309 309 311 314 316 316 318 326 330 331 332 333 334 334 334 334 334 333 331 330 328 328 325 320 316 315 316 313 311 310 311 311 311 310 310 310 310 312
318 318 317 315 317 320 322 322 328 327 321 318 319 321 317 314 316 319 322 320 319 318 316 323 328 325 322 323 323 323 327 330 326 325 329 329 330 331 331 331 330 328 327 331 333 333 334 334 335 333 331 327 321 320 320 316 312 310 311 310 309 309 311 315 318 321 324 327 330 332 332 333 332 331 333 333 331 328 325 324 323 320 317 316 318 319 318 317 313 311 311 311 311 311 311 309 309
318 318 316 316 319 321 323 323 327 328 321 320 323 321 316 316 320 322 321 318 318 318 319 324 325 322 321 322 323 321 325 328 326 328 330 330 330 330 330 330 329 329 329 332 334 334 334 334 334 333 331 326 320 321 320 317 312 311 311 310 309 309 310 313 320 327 325 323 327 331 329 330 328 326 329 332 329 325 322 319 317 316 316 317 321 324 324 323 316 311 311 310 311 311 311 310 311
317 318 316 316 321 323 330 329 328 327 321 321 323 320 319 322 322 317 316 318 319 320 320 322 323 322 321 322 325 323 324 326 326 329 329 329 330 330 330 329 329 329 331 332 333 334 334 335 334 333 330 323 319 321 321 318 314 311 311 310 310 309 310 312 318 324 322 317 322 327 327 328 327 323 323 327 327 324 319 315 314 314 316 319 323 325 323 320 316 311 310 310 310 311 311 311 312
317 317 315 317 322 323 328 326 323 323 320 323 320 318 323 324 319 313 316 321 320 319 318 321 325 323 323 323 324 324 325 325 325 328 329 329 330 329 330 330 330 330 331 332 334 334 333 334 333 331 326 320 320 321 322 319 315 312 311 311 311 310 310 311 317 319 316 315 318 321 326 328 326 322 318 318 321 321 317 313 313 313 317 322 324 323 319 317 317 313 310 310 310 310 311 311 312
317 317 315 317 320 319 322 320 319 323 322 322 319 318 321 317 315 315 318 321 319 318 317 320 324 324 326 325 324 324 326 326 326 328 328 329 329 329 330 330 330 331 331 332 334 333 333 333 331 329 324 321 320 321 322 320 316 313 311 311 311 311 311 312 320 322 316 317 321 321 324 325 322 319 317 315 316 316 314 312 314 315 317 320 322 324 321 318 315 311 310 310 309 310 311 310 311
316 316 318 320 318 318 325 324 325 326 317 314 316 317 317 312 313 318 318 319 320 317 316 320 322 324 325 325 327 328 330 328 326 328 329 329 328 329 329 329 330 330 331 333 333 332 332 332 331 329 325 322 320 321 323 321 317 314 312 311 311 311 311 312 321 326 318 318 325 326 325 326 321 316 317 315 313 312 311 312 316 317 317 317 320 323 322 318 312 309 310 309 309 310 311 311 311
316 317 319 324 323 322 328 325 325 324 313 309 311 314 314 311 315 318 317 318 319 315 317 321 320 321 322 323 327 329 330 329 328 328 329 328 328 329 329 329 330 330 332 333 333 332 332 331 332 330 326 324 321 321 323 322 319 316 314 312 311 311 312 311 317 322 317 316 324 327 325 325 323 316 315 315 312 310 311 314 315 315 315 316 318 319 319 316 311 308 309 308 308 309 311 312 311
316 319 318 323 326 324 327 321 318 318 315 313 311 313 314 313 316 318 316 315 315 315 318 321 317 317 320 323 326 327 328 329 328 328 328 328 328 328 328 328 329 330 332 333 332 332 332 332 331 330 327 325 322 321 322 323 321 319 316 314 312 311 312 312 312 313 313 314 319 322 319 319 321 315 313 316 312 309 311 314 313 313 313 314 317 316 315 312 309 308 308 308 308 309 311 312 312
316 320 317 321 327 322 321 318 317 317 316 315 311 313 315 314 316 317 316 314 314 315 319 320 317 317 321 324 325 325 328 329 327 328 328 328 328 328 328 328 329 330 332 332 332 332 331 331 331 330 328 327 324 321 321 323 323 321 319 316 314 312 312 312 312 311 312 312 313 315 313 314 317 315 313 314 313 311 312 314 313 314 312 312 315 314 312 309 307 307 308 309 310 310 311 312 313
317 318 317 324 329 321 320 320 320 322 319 314 312 313 316 315 315 315 314 314 315 316 319 319 318 319 321 323 324 323 326 328 327 328 328 328 328 328 328 328 329 331 331 332 331 331 331 330 330 329 328 328 326 323 321 322 324 324 322 319 316 314 312 312 312 312 311 311 311 311 312 314 315 314 312 311 312 311 312 314 313 311 310 310 312 311 309 308 308 309 311 311 312 312 312 313 314
317 319 326 332 327 321 322 322 321 327 326 320 316 315 316 315 315 314 313 314 315 316 318 319 318 319 321 322 322 322 325 328 327 328 328 328 328 328 328 328 330 331 331 331 330 330 330 329 329 328 328 327 326 324 322 321 323 324 324 322 319 316 313 312 312 313 312 312 311 311 312 314 312 312 312 310 310 310 310 312 310 308 308 308 309 308 308 310 311 313 313 313 314 314 313 314 315
317 320 331 327 319 321 322 320 319 325 327 321 316 314 316 316 316 315 314 314 314 316 318 318 318 318 322 320 320 322 325 327 327 328 328 328 329 329 329 328 330 330 331 331 330 329 329 329 328 328 327 327 326 324 323 321 321 323 324 324 322 319 315 314 313 314 314 314 313 313 312 311 310 310 310 309 310 309 308 308 308 308 307 307 307 308 311 313 314 314 314 314 314 314 314 314 315
317 319 327 321 314 321 322 319 319 322 323 320 314 314 316 316 316 315 314 315 314 315 317 317 318 318 320 318 319 321 324 326 327 328 329 329 329 329 329 329 329 330 330 330 330 330 329 329 328 328 328 327 326 324 323 322 321 322 324 325 324 322 319 316 316 317 317 317 316 315 313 311 309 308 308 308 308 309 308 307 307 307 306 307 309 311 314 315 315 315 315 315 314 314 314 314 314
318 316 324 325 317 319 319 318 322 324 323 319 315 314 316 316 316 315 314 316 315 315 316 317 318 318 317 317 318 319 322 325 326 328 329 330 329 330 329 328 329 329 330 330 330 330 329 329 329 329 329 328 327 326 324 323 322 322 322 324 325 325 323 320 318 319 319 319 319 318 316 314 311 308 308 307 307 308 307 307 307 306 306 308 311 314 316 315 316 316 316 316 315 315 315 315 315
319 316 325 328 318 319 317 315 319 324 320 314 312 314 316 316 315 314 314 314 315 315 315 317 318 317 317 318 317 317 320 323 325 328 329 331 330 330 330 329 330 329 330 330 330 331 330 330 329 329 329 329 329 327 326 324 323 322 322 323 324 326 326 323 321 320 321 321 320 320 319 317 314 310 308 307 306 306 307 307 306 306 308 312 314 316 317 317 317 318 317 317 316 316 316 316 316
318 321 328 326 320 321 318 316 318 321 321 312 310 314 316 316 314 314 314 314 314 314 315 317 317 317 317 317 317 316 317 322 325 326 328 331 331 330 331 330 330 330 330 330 330 331 330 330 329 329 329 329 330 329 327 326 324 323 323 323 324 325 326 326 323 321 321 321 321 321 321 319 317 314 311 308 306 307 308 307 306 308 312 315 317 317 318 318 318 319 318 318 318 317 317 317 317
321 330 330 323 323 324 319 320 316 317 320 313 310 314 316 317 314 313 314 314 314 314 315 316 316 317 317 317 317 316 315 320 324 325 326 329 331 331 331 330 330 331 331 330 329 330 330 330 329 329 329 329 330 329 329 328 327 325 324 324 325 325 326 328 326 323 322 322 322 322 322 322 319 317 315 312 309 310 312 311 310 313 316 317 318 318 319 319 319 320 319 319 319 318 318 318 318
321 328 326 328 329 320 314 315 312 313 316 312 311 313 315 316 313 313 315 314 314 314 315 314 315 316 316 317 317 317 314 317 322 323 324 326 328 329 330 330 329 330 330 329 329 329 330 330 330 330 330 330 330 329 329 329 329 327 326 325 326 326 326 327 328 327 325 323 323 322 322 322 321 319 317 316 313 313 315 315 314 317 318 318 319 319 319 319 320 320 320 320 320 319 319 318 318
317 321 326 334 326 314 311 312 312 313 313 312 311 312 313 314 313 314 314 313 313 314 315 314 315 315 316 316 317 317 315 314 319 321 322 322 324 326 327 327 327 328 328 329 328 328 329 329 330 330 331 331 330 329 330 329 330 329 328 327 327 327 327 328 329 328 328 326 324 323 323 323 322 321 319 318 316 315 317 318 318 318 319 320 320 320 320 320 320 320 320 320 320 320 319 319 318
315 319 328 326 314 313 314 312 312 312 313 313 312 312 312 313 313 313 313 314 315 314 315 315 315 314 315 316 316 318 316 314 315 318 320 321 322 323 324 324 325 326 327 328 328 328 328 329 330 330 331 332 332 330 330 330 330 330 330 329 329 329 329 329 329 329 329 328 327 325 324 324 324 323 322 320 318 317 317 318 319 319 319 320 320 320 320 320 320 320 320 320 320 320 320 320 319
316 316 317 314 309 314 314 311 313 312 313 313 311 313 313 313 313 313 313 316 317 315 315 316 315 315 315 315 315 317 317 315 314 315 317 318 319 320 321 323 324 325 326 327 327 327 327 328 329 330 331 332 332 331 330 330 330 330 330 330 330 330 330 329 329 329 329 329 329 328 326 325 325 324 323 322 320 319 318 319 319 319 319 320 320 320 320 320 320 320 320 320 320 321 321 320 320
319 316 311 310 310 313 313 312 313 312 313 312 311 313 313 312 313 312 312 315 316 314 315 315 315 315 314 315 315 315 316 316 314 314 314 315 316 317 319 321 322 323 324 325 325 326 326 327 328 329 330 330 331 331 331 331 330 330 330 330 330 330 330 330 330 330 330 330 330 330 329 327 326 325 324 323 322 320 319 319 319 319 319 319 319 319 320 320 320 320 320 320 320 320 321 321 321
319 318 311 311 311 311 312 312 312 312 313 313 312 313 312 313 313 312 312 314 315 314 315 314 314 315 314 315 315 315 315 315 315 315 314 314 314 315 317 318 320 322 323 323 324 325 325 325 327 328 328 329 329 330 330 331 330 330 330 330 330 330 331 330 331 331 330 331 330 330 330 329 328 327 325 324 323 322 321 319 319 319 319 319 319 319 319 319 319 319 320 320 320 320 320 320 321
316 317 311 311 311 311 312 312 311 312 312 312 313 312 311 312 312 311 312 315 314 314 315 314 314 314 314 315 315 315 315 315 315 315 315 315 315 316 316 317 319 321 321 321 322 323 324 324 325 326 326 326 326 328 329 329 330 330 330 330 330 330 331 331 331 331 331 331 331 331 331 331 330 329 328 326 325 324 324 322 320 319 319 319 318 319 319 319 319 319 319 319 320 320 320 319 320
314 314 311 311 311 311 311 311 311 311 312 312 313 312 311 312 311 312 313 314 314 314 314 314 314 313 314 315 315 315 314 315 314 314 315 315 315 315 315 316 317 317 318 318 319 320 321 323 324 324 325 325 325 326 327 328 328 329 329 329 329 329 329 330 331 331 331 331 331 331 331 331 331 331 330 329 327 326 325 325 323 321 320 319 319 319 319 319 319 319 319 319 319 319 319 319 319
313 312 311 311 311 311 311 312 311 312 312 312 314 313 311 311 311 314 314 314 314 314 314 314 315 314 314 315 315 315 314 314 314 314 314 314 315 314 315 315 315 315 315 316 317 318 319 320 321 321 323 323 324 325 326 327 327 328 328 328 328 328 328 329 330 331 331 331 331 332 332 332 332 332 331 330 329 328 327 326 325 324 321 320 320 319 319 319 319 319 319 319 319 319 319 319 319
312 312 313 311 310 311 311 311 311 312 312 311 313 312 310 311 313 315 313 314 314 314 314 314 314 314 314 314 315 314 314 314 315 315 314 314 314 314 315 314 314 314 315 315 315 316 317 317 318 319 320 321 321 322 324 326 326 326 327 328 328 328 328 328 328 329 330 331 332 332 332 332 331 331 331 331 330 329 329 328 328 327 325 323 322 321 320 319 319 319 319 319 319 319 319 319 319
312 312 315 314 313 314 310 310 311 311 313 312 311 312 313 313 314 315 313 313 314 314 314 314 314 314 314 314 315 314 314 314 314 315 314 314 314 314 314 314 314 314 315 315 315 316 315 316 316 317 318 318 318 319 321 323 324 324 325 326 327 327 327 327 327 327 328 330 331 331 332 331 331 331 330 330 330 329 328 329 329 328 327 326 325 324 322 321 320 320 320 319 319 319 320 320 320
313 311 315 317 316 315 310 310 312 311 312 311 310 313 317 317 312 312 313 313 313 314 314 314 314 314 314 315 315 315 314 314 315 315 315 315 314 314 314 314 315 315 315 315 315 315 315 316 316 316 316 316 316 317 318 319 321 321 321 322 324 326 326 327 327 327 327 327 328 329 330 330 330 330 330 329 329 328 328 327 327 328 328 327 327 327 325 324 323 322 322 321 321 321 320 320 320
315 310 315 318 315 317 312 308 311 312 312 311 310 312 317 317 311 310 312 312 313 314 314 314 314 314 314 314 315 315 315 315 315 315 315 315 315 315 315 315 314 315 315 315 315 315 315 315 315 315 315 315 315 316 316 316 317 318 318 319 320 321 323 325 325 325 325 325 325 326 327 327 328 329 329 328 327 327 327 326 326 326 326 327 327 327 328 327 326 324 324 323 323 322 322 321 321
319 311 317 317 312 318 316 308 308 312 313 310 310 314 317 316 311 310 312 312 312 313 313 314 314 314 314 315 315 315 315 315 315 315 315 315 315 315 315 315 315 315 315 315 315 315 315 315 315 315 315 315 315 315 315 315 315 316 316 316 317 317 319 320 322 323 324 324 323 323 324 324 326 328 327 325 325 325 326 327 327 326 325 326 325 326 327 327 327 326 325 324 322 322 322 322 322
321 315 319 318 314 317 315 310 307 309 312 311 310 313 318 316 310 311 312 312 312 312 313 313 314 314 314 314 314 315 315 315 315 315 315 315 315 315 315 315 315 315 315 315 315 315 315 315 315 315 314 315 315 315 315 315 315 315 315 315 315 316 316 317 317 319 321 324 325 326 328 328 326 326 325 324 327 328 327 328 328 327 324 325 325 325 326 325 325 326 325 324 323 322 322 321 322
318 317 319 317 316 315 315 315 309 307 311 313 312 312 317 316 310 312 312 311 312 312 313 314 314 314 314 314 314 314 315 314 315 315 315 315 315 315 315 315 315 315 315 315 315 314 314 315 314 314 314 314 314 315 315 315 315 314 314 314 314 316 316 317 319 322 323 323 324 326 329 332 329 326 327 326 328 330 329 329 329 326 322 323 323 323 325 325 324 324 324 324 324 324 323 322 321
317 317 316 314 315 314 315 318 311 308 313 314 315 314 316 316 311 312 312 311 312 312 314 314 315 315 314 314 314 314 315 315 315 315 315 315 315 315 315 315 315 315 315 315 315 315 315 315 314 314 314 315 314 314 314 314 315 315 315 315 314 316 316 318 321 325 327 327 328 326 325 327 329 331 333 332 331 330 329 329 329 325 323 324 323 322 324 325 324 325 325 325 325 325 324 323 322
320 319 319 319 321 316 315 317 310 307 314 315 316 316 316 318 315 312 312 312 311 313 314 314 315 316 315 315 315 315 315 315 315 315 315 315 315 315 315 316 315 315 315 315 315 315 315 315 315 315 314 315 314 314 314 314 314 315 315 314 314 314 315 316 317 320 323 325 326 324 320 320 324 329 332 332 333 333 332 330 329 327 325 327 327 325 325 325 325 327 327 326 326 325 324 324 323
318 318 320 320 320 317 314 315 309 305 313 317 316 317 316 317 316 312 311 311 309 310 313 314 315 315 315 316 315 316 316 316 317 316 316 315 315 315 315 316 315 315 315 315 315 315 315 316 315 316 315 315 315 314 315 314 314 314 314 314 314 314 314 315 316 316 317 319 320 319 319 319 322 324 324 326 327 330 331 329 328 327 326 327 327 328 328 326 325 327 327 326 325 325 325 325 323
318 317 318 316 316 318 313 313 311 305 311 317 314 316 316 316 316 311 309 309 309 310 312 314 315 315 315 315 315 316 315 315 316 316 316 316 316 316 316 316 316 316 315 315 315 315 316 316 316 316 315 316 316 315 315 315 315 315 315 315 315 315 315 315 316 317 318 319 320 321 322 325 326 325 325 326 324 322 325 328 330 331 330 328 325 325 324 321 323 326 327 326 325 324 324 325 324
322 317 316 315 315 317 312 311 312 307 311 318 317 317 317 316 316 311 308 309 311 312 312 313 314 314 315 315 315 315 315 315 315 314 315 315 315 315 315 316 315 315 314 314 314 315 316 316 316 316 316 316 316 316 316 316 316 315 315 315 315 315 316 316 317 319 320 321 321 322 322 324 325 324 325 326 322 320 322 327 330 329 328 326 325 326 323 319 323 326 326 325 325 323 323 323 324
321 318 318 317 314 315 315 313 312 310 310 315 317 317 316 316 316 313 308 305 309 310 310 311 312 313 314 315 314 314 314 314 314 314 314 314 314 314 314 314 314 313 313 314 314 315 315 316 316 316 316 316 316 316 316 316 316 316 316 316 316 316 316 317 318 319 320 320 320 320 320 320 321 322 324 324 323 325 325 324 325 325 325 323 323 326 324 320 322 326 327 326 323 321 320 321 323
316 319 326 323 317 317 316 313 312 312 310 311 314 315 321 324 322 320 310 303 306 308 308 311 311 311 312 312 313 313 313 314 314 314 314 314 313 313 313 313 313 313 313 314 314 315 315 315 316 316 316 316 316 316 316 316 315 316 316 316 316 317 316 317 318 318 318 318 318 319 319 319 321 322 323 323 324 327 327 325 324 325 327 328 327 324 321 320 321 323 325 325 322 321 320 321 323
314 319 328 327 322 320 316 314 316 318 314 310 310 314 327 331 327 325 317 312 313 309 306 309 311 311 311 312 312 312 312 312 313 314 314 314 314 314 314 314 314 314 313 314 314 314 314 315 316 316 316 316 316 316 316 316 316 316 316 316 316 316 316 316 317 317 317 318 318 319 319 320 321 322 322 323 323 323 323 324 326 326 328 331 328 322 319 321 323 323 324 324 324 323 321 321 323
315 315 320 322 322 322 320 317 317 319 315 308 309 315 322 325 324 324 318 317 320 313 306 307 310 312 312 313 313 313 314 313 313 314 314 313 313 314 314 314 315 314 314 314 314 314 314 315 315 316 316 316 316 316 316 316 315 316 316 316 316 316 317 317 317 318 318 318 319 319 319 320 321 322 322 323 323 323 322 324 326 326 326 326 324 323 323 323 323 324 324 323 323 323 322 321 322
317 313 315 321 322 323 323 320 319 319 313 311 316 318 314 316 319 319 315 316 319 319 314 309 309 314 314 313 313 312 313 314 313 313 313 312 313 314 315 315 315 315 315 315 315 315 314 314 315 315 315 315 315 316 316 316 316 316 316 316 316 316 316 316 316 317 317 317 317 317 318 318 319 320 321 322 323 324 324 325 324 324 325 326 327 328 328 327 326 326 326 324 324 323 323 321 320
317 309 311 318 319 323 324 323 323 317 311 316 320 314 312 318 322 319 314 314 317 321 319 312 310 313 313 313 314 313 312 312 313 313 313 314 315 315 316 316 316 316 316 316 315 315 315 315 315 315 315 315 315 315 315 316 316 316 316 316 316 316 316 316 316 316 316 316 316 316 316 317 317 318 319 320 321 322 323 324 323 324 325 325 325 325 325 325 325 325 325 325 324 323 323 324 323
312 305 309 314 315 320 321 322 323 317 315 321 319 310 311 318 325 324 315 313 317 318 316 311 310 312 312 313 314 314 314 314 314 315 315 315 316 316 316 315 316 316 316 316 316 316 315 316 315 315 316 316 316 316 316 316 316 316 316 316 316 316 315 315 315 315 315 315 315 315 314 315 315 316 317 318 319 319 320 321 322 323 323 322 322 323 324 325 325 324 325 326 326 325 325 326 326
306 310 315 315 318 322 321 322 319 315 320 323 314 310 311 312 321 325 315 313 315 314 314 312 311 312 312 312 313 314 315 315 315 315 315 315 315 316 316 315 316 316 316 317 316 316 316 316 317 316 316 316 316 316 316 316 316 316 316 315 315 315 315 315 315 315 315 315 314 314 314 314 314 314 315 316 317 317 318 318 319 320 321 321 321 323 324 325 326 327 326 326 326 325 325 326 326
309 320 320 316 320 321 322 325 317 314 324 321 310 308 311 310 318 319 314 315 314 311 316 315 311 312 311 311 312 314 314 314 315 315 315 315 315 315 315 315 316 316 316 316 316 316 316 316 316 316 316 316 316 316 315 315 315 315 315 315 315 315 315 315 315 315 315 315 315 314 314 314 314 313 314 314 314 315 315 316 317 317 318 319 320 322 322 322 323 324 323 322 321 321 323 325 323
315 319 319 319 320 317 320 325 317 316 321 313 307 309 310 311 316 313 313 316 313 308 310 312 310 310 311 311 312 314 314 315 314 315 315 315 315 315 315 315 315 315 315 316 316 315 316 315 315 315 315 315 315 315 315 315 315 315 315 315 315 315 315 315 315 315 315 315 315 315 314 314 314 314 314 313 314 314 314 315 315 316 316 316 317 318 319 319 319 319 319 319 317 317 320 321 319
314 314 318 321 319 314 316 318 313 314 316 309 306 309 311 313 314 314 314 312 309 306 307 309 309 310 311 311 313 314 314 315 314 314 315 315 314 314 314 315 314 315 315 315 315 315 315 315 315 315 315 315 315 315 315 315 315 315 315 315 315 315 315 316 316 315 315 315 315 315 315 314 314 314 313 314 314 313 314 314 314 314 314 314 314 314 315 315 316 316 316 316 316 315 317 317 317
313 314 315 318 323 321 319 319 318 318 315 309 307 310 318 319 311 312 311 306 306 308 307 309 309 310 311 311 314 314 314 315 315 314 314 314 314 314 314 314 314 314 314 314 315 315 314 315 315 315 315 315 315 315 315 315 315 315 315 315 315 315 315 315 315 315 315 315 315 315 315 314 314 314 314 314 314 314 314 314 314 313 313 313 313 313 313 313 313 314 313 313 313 314 315 315 315
313 312 312 315 321 322 316 312 315 316 313 311 310 312 320 317 309 309 306 304 306 306 307 310 310 310 311 313 314 314 314 315 314 314 314 313 314 314 314 314 314 314 314 314 315 315 315 315 315 315 315 315 315 315 315 315 315 315 315 315 315 315 315 315 315 315 315 315 315 315 315 314 314 314 314 314 313 314 313 313 313 313 313 313 312 313 312 312 312 312 312 312 312 313 314 314 314
313 311 314 316 314 316 314 306 305 309 311 313 312 314 318 313 311 315 312 309 310 308 307 309 310 310 312 313 314 313 314 314 313 314 314 314 314 314 314 314 314 314 314 314 314 314 315 314 315 315 314 315 315 315 315 315 315 315 315 315 315 315 315 315 315 315 315 315 315 315 314 314 314 314 314 314 313 313 313 313 313 313 313 312 312 312 312 312 312 311 311 311 312 312 312 312 312
315 315 315 311 307 313 316 311 312 312 313 317 314 313 317 314 313 318 315 312 314 312 309 307 308 310 312 313 313 313 313 313 313 314 313 314 314 314 315 314 314 315 314 315 314 314 315 314 314 315 314 315 315 315 315 315 315 315 315 315 315 315 315 315 315 315 315 315 314 314 315 314 314 314 314 314 313 314 313 313 313 313 313 313 312 312 312 312 312 311 311 311 311 311 311 311 310
312 314 310 310 313 315 313 311 317 314 311 321 319 311 310 312 316 321 315 313 316 314 309 307 307 310 312 313 312 312 313 313 313 314 313 314 314 314 314 314 314 314 314 315 314 314 315 314 314 315 314 314 314 314 315 315 315 315 315 315 315 315 315 315 315 315 314 315 314 314 314 314 314 314 314 314 314 314 314 314 314 313 313 313 313 313 312 312 312 312 312 311 311 311 310 310 310
308 308 306 312 320 319 314 311 315 314 311 317 320 315 314 314 316 321 316 314 314 312 311 309 307 310 313 313 312 312 313 313 313 314 313 314 314 314 314 314 314 314 314 314 314 314 315 314 314 315 314 314 314 314 314 314 314 314 314 315 315 315 315 314 314 314 314 315 314 314 314 314 314 314 314 314 314 314 315 314 314 314 314 314 314 313 313 313 312 313 312 312 312 311 311 311 311
309 310 309 312 314 313 313 312 313 316 316 317 316 319 327 322 312 315 316 314 312 311 311 309 306 311 314 312 313 313 312 313 313 313 313 313 314 314 314 314 314 314 314 314 314 314 315 314 314 314 314 314 313 313 314 314 314 314 314 314 315 315 315 314 314 314 314 314 314 314 314 314 314 314 314 314 314 315 314 315 314 314 314 314 314 314 313 313 313 313 313 313 313 312 312 312 312
311 311 311 312 313 312 314 313 311 312 313 316 314 314 326 324 311 312 315 311 307 305 306 307 308 312 313 312 313 313 312 313 313 313 314 313 314 313 314 314 314 314 314 314 314 314 313 313 313 313 313 313 313 313 314 314 314 314 314 314 314 314 314 314 314 314 314 314 314 314 314 314 314 314 314 314 314 314 314 314 314 314 314 314 314 314 313 313 313 313 313 313 313 313 313 313 312
Wind_Speed
5 3 3 4 3 1 1 3 2 3 2 1 1 1 1 1 0 2 1 1 1 3 7 6 15 18 7 3 6 5 5 5 4 2 2 8 18 23 21 19 20 19 19 17 17 16 16 14 12 11 8 6 6 8 9 11 10 7 7 8 8 10 11 13 15 16 19 18 17 16 13 11 9 9 10 9 8 8 7 6 6 5 6 6 7 7 9 12 13 13 13 13 13 13 13 14 14
4 3 3 3 2 1 1 3 1 2 3 1 2 1 1 1 1 4 5 3 1 2 6 12 18 13 5 5 7 5 4 4 5 5 8 17 24 23 21 19 19 19 18 18 17 16 15 14 12 10 8 6 7 8 10 11 10 9 8 8 8 9 11 13 14 15 16 18 19 17 13 10 7 7 9 8 7 7 7 6 6 7 7 7 10 10 11 13 14 14 14 13 13 14 13 13 13
4 3 3 3 2 1 2 3 1 0 2 1 3 2 1 2 3 5 6 3 2 8 12 15 14 6 4 6 5 3 3 5 6 9 16 24 26 23 21 19 19 19 18 17 17 16 15 14 12 10 8 7 8 8 10 11 11 10 10 9 8 8 10 11 13 14 12 15 19 17 13 9 6 6 7 7 6 6 6 6 7 8 7 9 12 13 13 13 14 14 14 14 13 13 13 12 12
3 3 4 2 0 3 3 3 1 3 2 2 1 2 3 4 5 4 4 6 10 14 12 11 6 3 3 2 3 3 4 7 7 12 21 25 24 22 21 20 20 19 17 16 16 16 15 14 12 10 8 8 8 8 9 11 11 11 11 11 10 9 9 10 11 13 11 14 18 17 14 10 6 7 7 6 5 5 4 5 7 7 9 11 12 13 13 12 13 14 14 14 13 12 12 11 11
4 3 4 2 1 2 3 2 1 3 2 3 1 3 4 5 5 4 8 13 15 9 5 6 3 3 4 2 4 2 4 8 10 15 22 24 22 22 22 22 21 19 17 16 16 16 15 14 12 11 9 8 8 8 9 10 11 11 11 11 11 11 10 10 10 12 12 13 14 15 14 9 6 6 7 6 5 4 4 6 7 7 10 11 12 12 11 12 13 13 13 13 13 12 11 10 10
3 3 2 0 3 3 3 1 1 1 3 4 2 4 4 5 7 10 12 13 8 1 2 5 4 5 5 4 4 5 6 7 12 18 22 24 22 22 22 22 21 19 17 16 16 16 15 14 12 11 9 9 8 8 8 10 10 11 11 11 12 12 11 11 12 12 12 12 12 12 12 8 5 4 5 7 6 5 5 7 7 8 10 10 11 11 11 12 13 13 13 13 13 12 10 10 10
3 2 1 3 4 3 2 2 3 1 2 3 1 3 3 6 11 14 11 8 5 4 4 5 6 5 3 4 5 7 8 9 14 20 23 23 23 23 22 22 21 19 18 17 17 16 15 14 13 12 10 9 8 8 8 9 10 11 11 11 11 11 11 12 13 12 11 13 13 11 10 8 4 4 6 7 7 7 7 7 8 8 10 10 11 11 11 12 13 13 12 13 12 11 11 11 11
3 2 1 3 3 4 3 2 3 1 1 2 3 4 2 8 15 15 9 6 4 5 5 7 6 2 2 4 5 7 9 13 17 21 23 22 23 23 21 21 20 20 19 18 17 17 16 14 13 12 11 10 9 8 8 8 9 11 11 11 11 11 11 11 12 12 12 13 13 10 9 8 5 5 7 8 7 7 7 7 7 8 9 10 11 11 10 12 13 13 12 12 13 12 11 11 11
3 2 1 2 2 2 2 1 1 2 2 3 4 4 3 10 14 13 9 4 3 5 7 9 3 1 4 4 6 9 11 15 19 22 23 22 23 22 21 20 19 20 20 19 18 17 16 14 13 11 11 9 8 8 8 8 9 10 11 10 10 10 11 11 10 10 11 11 11 10 8 7 6 5 6 7 7 7 7 6 6 7 8 9 10 10 10 12 13 13 12 12 13 13 12 11 10
3 1 2 2 2 2 2 1 1 1 3 3 4 3 6 12 12 11 9 3 4 5 8 9 1 2 7 4 6 9 12 17 21 23 23 22 23 22 21 19 19 20 20 19 18 17 16 14 13 11 10 9 8 8 7 7 8 9 10 10 10 10 10 10 10 10 11 10 9 8 7 6 6 5 6 8 7 7 6 5 6 7 9 10 9 10 10 12 13 13 13 13 13 13 12 11 9
2 2 3 3 2 2 1 2 2 3 4 4 3 3 8 12 10 8 6 3 5 5 8 8 2 7 7 3 6 9 14 18 21 23 22 23 22 21 20 19 19 18 18 18 18 17 15 14 12 11 10 8 7 7 7 6 6 7 9 9 9 9 10 10 10 10 11 10 9 8 8 7 6 6 8 8 7 6 6 5 6 9 10 9 9 10 11 12 13 13 13 13 12 12 11 10 9
3 2 3 3 2 2 2 2 2 4 5 2 1 5 10 12 9 6 6 4 6 5 8 7 3 8 4 0 6 9 15 18 21 22 21 23 22 21 20 19 19 18 17 16 16 16 15 14 12 11 10 8 7 6 6 6 5 5 7 8 8 9 9 10 10 11 11 10 10 8 8 8 7 7 8 8 8 6 6 5 7 10 9 9 9 10 12 13 12 12 12 12 11 11 11 10 9
4 2 4 2 2 2 3 2 2 3 4 1 3 7 11 12 7 6 7 5 6 5 7 7 4 6 3 1 7 10 16 19 22 21 21 23 22 21 20 19 19 18 17 15 15 15 15 14 12 11 10 9 8 7 6 6 5 4 5 6 7 7 8 9 9 10 11 10 10 9 8 8 7 7 7 7 7 6 5 5 7 9 9 9 9 11 12 12 12 11 11 11 11 10 10 10 9
4 3 4 2 1 1 3 1 1 1 1 3 2 10 13 10 6 7 7 5 8 6 6 9 6 4 3 2 7 13 18 20 22 21 21 22 22 22 20 20 19 19 17 16 15 14 14 13 13 12 11 10 8 8 7 6 6 5 4 4 5 6 6 7 8 9 9 9 9 9 9 8 8 7 7 7 7 6 5 5 7 8 9 9 10 11 12 12 11 11 11 11 11 11 11 10 9
5 4 4 3 2 0 3 1 1 4 3 3 4 11 13 9 6 6 8 6 7 7 6 9 8 4 3 4 5 14 19 20 23 20 21 22 22 22 21 21 20 19 19 17 16 14 14 13 13 12 11 10 9 8 7 7 6 5 5 4 4 4 4 5 6 7 7 8 8 9 9 8 8 7 7 7 7 6 5 7 8 8 9 10 10 10 11 11 11 11 11 11 11 11 11 10 10
5 4 4 3 1 1 3 1 2 3 4 4 7 10 10 7 7 5 7 6 6 8 7 8 10 4 3 5 3 13 19 19 23 20 21 22 22 22 21 22 21 20 20 19 18 16 15 14 13 13 12 10 9 8 7 7 7 6 6 5 4 3 3 3 4 4 5 6 6 7 8 8 8 7 7 6 7 6 6 8 9 8 9 9 9 9 10 10 10 11 11 11 11 11 11 11 10
6 4 4 2 2 2 4 4 4 3 3 4 8 12 8 4 8 5 6 7 6 9 10 7 11 7 5 5 3 13 19 19 24 22 22 23 23 24 23 23 23 22 21 20 19 17 16 15 14 13 12 11 10 9 8 8 7 7 7 6 6 4 4 3 3 3 3 3 4 5 6 7 7 7 6 6 6 6 6 8 8 7 8 8 8 9 9 9 9 9 10 10 10 10 10 10 10
5 3 3 1 2 3 5 7 7 4 1 5 10 14 11 4 8 7 5 6 6 8 12 9 10 11 8 5 4 11 18 20 24 24 23 24 25 25 25 25 25 23 22 21 20 19 17 16 15 14 13 12 11 11 10 9 9 8 8 7 7 6 5 4 3 3 2 2 2 3 4 5 6 6 6 5 5 4 5 7 7 6 6 7 7 7 8 8 8 8 8 8 8 8 9 9 9
3 3 3 2 5 4 5 8 9 4 2 7 11 12 12 6 8 10 4 4 5 6 9 10 11 13 12 8 6 10 16 20 23 25 24 25 26 26 26 26 26 25 23 22 21 20 19 18 17 15 14 13 12 12 11 10 10 9 9 9 8 7 7 6 5 4 3 2 1 1 2 3 4 4 4 4 4 3 3 5 6 5 5 5 5 6 6 6 6 6 7 6 6 7 7 7 7
2 3 2 4 6 3 4 7 8 4 1 8 12 11 11 6 8 10 5 3 4 6 9 11 13 14 14 12 9 10 16 19 22 24 25 25 26 26 26 26 26 25 24 22 21 21 20 19 18 17 15 14 14 13 13 12 11 11 10 10 9 9 8 7 7 6 5 4 3 2 1 0 1 2 2 2 2 2 1 2 4 3 3 4 4 5 5 5 4 4 5 4 5 5 5 5 4
2 4 3 4 4 2 3 5 4 4 2 8 12 10 8 7 9 10 7 3 3 10 14 15 14 12 12 14 12 11 15 19 21 23 24 25 25 25 25 24 24 24 23 22 22 21 20 20 19 18 17 16 15 15 14 14 13 13 12 12 11 10 9 9 8 7 7 6 6 5 4 3 2 1 0 0 1 2 2 1 2 2 2 3 3 3 3 3 3 3 3 2 2 3 3 3 3
3 2 2 2 4 2 2 4 4 5 5 9 13 9 8 8 9 11 10 6 4 8 12 14 15 12 11 13 13 12 15 18 20 21 23 24 24 24 24 23 23 23 24 23 22 22 21 20 19 19 18 17 17 17 16 15 15 15 14 13 13 12 11 10 10 9 9 8 8 7 6 5 4 3 2 2 2 3 4 3 3 3 3 3 3 3 3 3 2 2 2 1 0 1 2 2 3
3 1 1 4 3 2 3 4 4 6 8 11 13 9 9 10 6 9 14 14 10 4 4 6 12 14 13 12 14 13 15 18 17 17 19 20 21 22 22 22 23 23 23 23 22 22 21 21 20 20 19 18 18 17 17 17 17 16 16 15 14 13 12 12 11 11 10 10 10 9 9 8 7 6 5 4 4 4 5 5 5 5 5 5 4 4 4 4 3 3 3 3 2 2 2 2 3
4 1 2 6 3 2 2 3 5 6 8 10 11 9 7 9 6 5 14 21 17 10 6 2 5 11 15 14 14 14 13 15 14 14 14 15 16 18 19 21 22 22 23 22 22 22 21 21 21 21 20 19 19 18 18 18 18 17 17 16 16 15 14 14 13 12 12 12 11 11 11 10 10 9 8 7 6 6 7 7 7 7 7 7 7 7 6 6 5 5 5 5 5 5 5 4 4
3 3 4 7 3 3 4 3 6 6 7 10 10 8 5 8 6 5 14 18 16 16 15 11 7 7 13 16 15 14 14 14 14 14 14 14 15 16 18 19 21 23 23 22 22 22 21 21 21 21 21 20 19 19 19 19 18 18 18 18 17 16 16 15 14 14 14 14 13 13 13 13 12 11 10 10 9 8 8 9 9 9 8 8 9 9 9 8 8 8 7 7 7 7 7 7 6
4 6 7 8 4 4 5 5 7 6 8 10 8 4 2 5 4 8 15 16 15 17 17 17 16 11 11 15 17 15 15 15 15 15 15 15 16 16 16 17 19 21 21 21 21 22 21 21 22 22 21 21 20 20 20 19 19 19 19 18 18 17 16 16 16 16 16 16 15 15 15 14 14 14 13 12 12 11 10 10 10 10 10 10 10 11 11 11 10 10 9 9 9 9 9 9 9
8 11 11 8 6 5 4 5 8 7 8 8 7 3 2 4 2 6 8 8 10 16 17 16 18 16 13 13 17 17 16 15 15 16 16 17 17 16 16 17 18 18 18 19 20 20 20 21 21 21 22 21 21 21 21 21 20 20 20 19 19 18 17 17 17 18 18 18 17 17 17 16 16 16 15 15 14 13 13 12 12 12 12 12 12 12 12 12 12 12 11 11 11 11 11 11 11
11 15 10 6 5 6 4 5 7 6 5 4 5 3 1 3 3 6 7 5 5 9 15 16 16 17 15 13 16 19 18 17 18 18 18 17 16 15 15 15 15 15 16 17 17 18 19 20 20 20 21 21 21 22 22 22 22 21 21 21 21 20 19 19 19 19 19 19 19 19 19 18 18 17 17 16 16 15 15 14 14 13 13 13 13 13 13 14 14 13 13 13 13 13 13 13 13
11 10 5 5 5 4 4 3 2 2 2 4 5 1 2 3 7 8 7 9 7 6 10 14 15 15 15 14 15 19 20 20 20 20 18 16 15 15 15 14 14 14 15 16 16 18 18 18 19 19 20 21 21 21 21 22 23 22 22 22 22 22 22 21 21 20 20 20 20 21 21 21 20 19 19 18 18 18 18 17 16 15 15 15 15 15 15 15 15 14 14 14 14 14 15 15 15
8 5 4 2 5 3 4 4 1 2 2 4 5 2 5 7 10 9 7 8 8 8 9 12 14 15 16 16 15 17 19 21 21 19 18 17 17 18 17 16 16 16 15 17 17 17 17 18 18 19 20 20 21 21 21 22 22 23 23 22 23 23 23 24 23 22 22 21 22 22 23 23 22 21 20 20 20 20 20 19 19 18 17 17 17 16 16 16 16 15 14 14 15 16 16 16 17
4 3 2 2 2 4 5 4 1 3 2 3 5 2 6 7 7 6 10 11 9 10 10 11 14 15 17 18 18 18 18 19 19 18 18 18 19 20 19 18 18 18 17 17 17 16 17 18 18 19 19 20 20 21 21 22 22 23 23 23 23 23 24 25 25 25 24 24 23 23 23 23 22 21 20 20 21 21 21 21 20 19 19 19 19 18 18 17 17 17 15 15 16 17 18 18 18
3 2 0 2 3 5 6 4 3 2 2 2 5 2 6 8 6 3 6 10 10 12 11 11 13 14 16 18 20 20 20 19 20 19 19 19 19 20 20 19 19 19 19 18 17 17 18 18 19 19 20 20 20 20 21 21 21 22 23 24 24 24 24 25 25 26 26 26 25 24 23 22 21 21 21 18 19 18 19 23 22 19 19 20 20 20 19 18 18 19 19 18 19 19 19 19 19
4 2 3 2 3 3 4 2 3 2 1 0 2 2 3 3 4 3 3 3 4 7 9 9 12 14 17 19 20 21 22 22 22 22 20 19 19 19 19 19 19 20 20 20 19 19 19 19 19 20 20 20 20 21 21 21 21 21 22 23 23 24 24 24 24 24 24 25 26 26 25 25 23 22 21 19 21 22 20 23 23 22 22 21 21 22 22 21 20 20 20 21 22 20 19 19 19
2 2 3 2 3 3 2 2 3 4 2 2 2 2 6 5 6 6 5 5 7 9 10 10 11 14 15 18 20 21 22 23 24 23 20 19 19 18 18 18 19 20 20 21 21 21 21 21 21 21 20 21 21 21 22 23 23 23 23 23 23 23 24 24 24 23 24 24 25 26 27 28 27 25 24 21 23 26 23 23 24 23 22 19 20 22 24 23 22 22 22 24 24 22 22 20 20
5 3 3 2 2 3 3 3 2 3 2 3 1 3 9 10 12 15 14 11 14 16 15 14 14 14 13 15 18 20 22 24 23 20 18 18 18 18 18 18 18 19 19 20 21 22 22 22 23 22 22 22 22 21 21 22 24 25 25 25 24 24 25 25 25 25 26 25 25 27 28 29 28 26 27 26 25 25 24 24 25 24 22 20 21 21 23 26 25 24 24 25 25 25 26 22 21
9 6 5 5 3 4 5 4 4 1 2 3 5 5 8 9 10 17 19 13 13 17 18 18 18 17 17 17 18 19 21 23 20 18 18 19 19 18 18 19 19 19 19 20 21 22 22 22 23 23 23 22 23 23 23 23 24 25 26 26 26 25 24 24 25 25 26 27 27 28 27 27 26 25 27 28 27 27 26 26 27 27 26 27 27 21 22 26 28 29 27 26 27 27 28 26 24
8 6 4 4 4 3 3 3 5 1 2 3 4 4 8 10 9 16 22 14 12 19 21 22 21 19 20 20 21 21 22 22 19 18 18 18 20 20 20 20 20 20 20 20 21 21 21 21 22 22 21 22 23 24 24 23 24 24 25 25 25 24 24 23 23 22 22 23 23 23 23 22 24 25 26 27 27 27 28 29 30 29 26 27 30 26 25 28 30 32 31 28 29 30 31 30 28
6 6 5 2 3 3 2 2 3 2 2 2 2 3 9 10 10 16 19 10 12 20 20 22 22 20 21 22 23 24 24 23 22 21 19 19 20 20 21 21 22 22 21 22 22 22 22 22 22 21 20 21 22 22 22 22 22 23 23 23 23 23 23 23 22 21 21 20 20 20 22 24 27 27 26 28 28 27 27 29 34 34 27 24 28 29 29 29 27 29 32 30 30 32 33 34 32
5 4 5 2 2 2 2 2 3 3 1 3 4 4 8 10 9 14 18 14 17 21 20 22 23 23 24 24 25 25 25 26 24 23 22 22 22 22 23 24 24 24 23 23 23 22 22 22 21 20 20 20 20 20 20 20 20 20 21 22 22 23 22 22 22 22 22 22 21 20 22 24 27 27 26 29 28 25 25 27 30 32 30 28 29 30 31 29 27 29 32 31 31 34 35 37 37
4 4 5 2 2 2 2 2 3 3 2 1 2 3 7 7 6 10 14 14 18 19 19 21 22 25 27 27 28 28 28 28 27 26 24 24 24 24 25 25 26 25 23 22 21 21 21 20 20 20 20 20 20 20 19 19 19 19 20 20 21 22 22 22 23 24 23 23 23 22 22 22 23 24 26 28 27 26 27 27 28 29 30 30 28 30 32 31 30 32 34 32 31 34 35 37 38
1 3 6 3 4 4 3 1 0 2 3 2 2 4 6 4 5 7 6 6 10 11 12 14 14 17 20 22 22 22 23 24 24 23 22 22 22 22 24 25 25 24 22 22 21 22 21 20 20 20 21 21 21 21 20 20 20 19 19 20 20 21 22 22 24 24 23 22 22 21 20 21 22 22 24 26 26 29 31 30 29 28 31 32 30 30 31 30 28 29 31 32 33 34 35 35 36
1 3 6 6 7 6 2 2 3 3 3 3 3 3 5 4 4 6 4 6 8 8 8 10 8 7 10 13 14 15 17 17 16 13 12 13 15 18 20 21 20 19 20 21 22 23 22 22 21 21 21 22 22 22 21 21 20 19 19 19 19 19 20 20 20 19 19 19 19 19 18 19 20 21 21 22 24 26 27 28 29 29 31 34 33 32 29 28 29 28 29 33 35 35 35 36 37
2 4 5 7 8 8 7 5 4 2 1 2 3 2 4 6 5 6 5 7 10 9 8 8 7 6 6 8 11 13 14 13 11 9 8 10 12 14 14 14 13 14 16 18 19 21 22 22 22 22 22 21 21 21 21 21 20 19 18 17 17 17 18 17 16 15 16 17 18 19 19 19 20 20 20 21 22 23 23 25 29 30 32 34 34 33 31 31 31 30 31 33 34 35 35 36 38
3 3 6 9 8 8 7 6 4 2 2 2 3 3 1 5 6 6 5 6 9 8 7 8 10 9 7 7 6 7 8 8 8 9 10 10 11 11 10 10 11 12 13 14 15 16 18 19 21 21 20 19 18 18 18 18 17 16 15 14 15 15 15 15 14 15 16 17 19 19 20 20 21 21 21 21 21 23 25 27 28 29 32 35 36 36 36 36 35 35 34 33 33 34 36 37 36
3 3 6 7 7 7 6 6 4 1 1 2 4 3 1 5 6 5 5 5 8 8 7 8 9 10 11 11 9 6 1 5 8 10 11 10 10 9 8 8 8 8 9 10 11 12 13 14 15 15 14 14 13 13 13 13 12 12 12 13 14 14 14 14 15 16 17 18 19 20 20 21 21 21 21 22 22 22 25 27 27 28 31 33 33 34 34 35 37 36 36 37 38 37 39 40 38
4 6 7 6 6 6 5 5 4 3 2 4 4 2 1 5 6 4 3 2 6 7 6 6 5 9 12 13 13 11 10 12 14 15 14 13 12 10 9 8 7 6 7 8 8 9 9 9 9 9 9 9 9 9 8 9 9 9 10 10 11 11 11 12 14 16 16 17 19 19 20 21 21 21 21 22 22 23 23 25 25 27 30 30 30 32 34 33 34 35 37 40 41 39 42 44 42
11 7 7 7 6 5 4 3 4 4 2 5 4 2 1 2 6 4 2 3 5 3 2 3 4 8 11 13 12 11 13 16 17 16 16 14 14 14 12 11 10 10 9 9 9 9 8 8 8 7 7 6 5 5 4 4 4 5 5 6 7 8 9 11 13 14 15 16 17 18 19 20 21 21 21 21 22 22 23 24 24 26 27 27 28 32 34 33 34 35 36 38 39 40 41 41 40
8 4 5 5 4 4 4 4 3 2 4 5 3 2 1 3 5 3 4 5 5 4 3 2 5 8 11 12 11 11 13 15 16 16 16 16 16 16 15 14 14 14 14 13 12 12 12 11 11 10 9 8 7 5 4 2 1 1 2 4 6 7 9 11 12 14 14 16 17 18 19 20 21 21 21 22 21 21 22 23 24 25 26 26 29 32 33 34 35 37 39 40 42 43 40 37 39
4 5 7 5 2 2 2 3 1 2 5 3 2 1 2 5 7 6 8 8 7 8 8 6 8 7 10 11 10 12 13 14 15 16 16 17 17 17 16 16 17 18 18 18 17 16 16 15 14 13 12 11 10 9 8 7 5 4 4 5 6 7 9 11 12 13 14 16 17 19 20 21 21 21 21 21 20 20 21 22 23 24 25 26 27 30 33 34 36 38 41 43 43 43 42 42 43
4 6 6 5 3 2 2 3 2 3 4 3 3 2 2 4 6 8 11 10 8 10 10 9 8 5 8 9 11 14 16 17 16 17 17 18 19 19 20 21 21 21 21 21 20 19 18 17 16 15 13 12 11 10 9 8 7 6 6 6 7 8 9 10 12 14 15 16 17 19 20 21 21 21 21 20 19 19 20 22 22 24 25 26 27 29 31 32 34 36 38 40 41 42 43 43 43
3 3 5 5 5 5 4 4 3 3 2 2 3 2 3 3 3 6 8 9 9 10 12 12 8 3 7 9 13 16 18 20 20 21 23 24 24 24 24 23 23 22 22 21 20 18 17 15 13 12 10 9 8 7 6 5 4 4 5 6 7 8 9 11 12 14 15 16 17 19 20 21 22 21 20 19 19 20 21 21 22 23 24 25 26 28 29 30 32 33 34 36 36 37 39 41 42
2 2 5 3 4 5 3 3 5 4 1 1 2 3 4 3 5 6 6 8 8 8 9 10 7 1 7 11 15 19 21 24 25 26 26 26 25 24 23 22 21 19 18 17 16 14 12 11 9 7 6 5 4 4 3 3 4 5 6 7 9 10 11 12 13 14 15 16 17 18 19 20 20 20 19 19 19 20 21 21 22 23 23 24 25 26 27 28 30 31 32 33 34 35 38 40 41
2 2 3 4 4 8 6 2 0 3 1 2 1 3 5 3 5 6 3 3 5 3 4 8 8 4 10 15 19 22 24 26 26 25 25 23 22 21 20 19 17 15 14 12 11 10 8 7 5 5 4 5 5 6 6 6 7 8 9 10 11 12 13 14 15 15 16 16 16 17 17 18 18 17 17 17 19 19 20 21 22 23 23 24 25 25 26 27 29 31 32 33 34 35 37 38 39
4 3 5 4 3 5 5 2 3 3 2 4 1 4 5 1 3 6 4 3 7 5 3 7 8 9 15 19 21 23 24 24 24 23 22 21 20 19 17 16 13 12 11 9 8 7 6 5 4 5 5 6 7 7 8 8 8 9 10 11 12 12 13 13 14 15 16 16 16 16 16 16 15 15 16 16 17 18 19 20 21 22 23 24 25 25 26 27 29 31 32 33 34 35 37 37 38
3 5 4 4 3 2 2 2 1 1 2 4 3 3 3 3 4 4 2 7 8 6 5 5 8 15 20 21 22 23 22 22 22 22 21 19 18 17 15 13 12 10 9 8 7 6 5 5 6 7 8 9 8 8 8 8 9 10 11 11 12 12 13 13 14 15 15 16 16 16 16 15 15 15 16 16 16 17 19 20 21 22 22 23 24 25 26 27 29 30 31 32 33 34 36 36 36
4 3 3 2 2 4 2 2 4 3 3 3 4 3 3 6 6 5 8 9 7 7 6 5 11 20 25 24 23 21 21 22 22 21 19 18 16 14 12 11 9 8 7 7 6 5 6 7 8 9 10 11 11 10 9 8 9 10 11 12 13 14 14 14 15 15 15 15 16 16 16 16 16 16 17 17 18 19 20 21 22 23 24 24 24 24 25 27 28 29 30 31 32 33 35 35 35
3 3 4 2 2 2 2 1 2 3 4 3 2 3 5 6 5 7 10 6 5 7 7 8 15 23 27 26 23 21 20 21 20 19 17 15 14 12 10 9 7 7 6 5 5 6 7 7 8 9 10 11 11 11 10 9 10 11 12 13 14 15 15 16 16 16 16 16 16 17 17 17 17 17 18 19 19 20 22 24 24 25 25 25 26 26 26 27 28 29 29 30 32 33 34 35 34
5 5 6 6 4 4 3 2 1 2 3 4 4 3 8 6 4 6 7 5 6 8 8 12 19 24 26 23 21 19 20 20 19 17 15 13 11 10 8 7 5 4 3 3 4 6 6 7 8 8 9 9 10 10 9 9 10 11 13 14 15 16 16 17 17 17 17 17 18 18 19 19 18 19 20 20 20 21 23 25 26 27 27 28 28 28 28 29 30 30 31 31 32 33 35 35 35
Wind_Direction
225 250 302 315 315 214 59 50 99 21 70 117 299 210 211 233 229 171 189 210 131 196 198 176 160 158 158 181 182 158 122 147 163 127 151 153 146 151 157 163 167 164 160 150 146 145 142 141 142 142 140 127 88 64 47 44 47 59 80 96 103 105 108 112 117 119 121 127 124 117 116 116 122 126 126 126 120 116 112 111 108 95 82 80 88 95 101 101 100 98 96 94 92 90 90 94 102
234 255 305 308 329 210 185 53 93 338 47 114 250 190 246 309 159 193 184 194 219 166 172 157 155 160 162 148 144 129 117 137 138 119 132 145 147 153 158 163 167 165 162 154 151 150 147 146 144 143 141 125 93 69 53 51 53 59 70 85 98 102 108 111 112 110 118 134 131 123 123 122 125 132 135 133 124 119 111 107 105 93 87 89 93 95 97 98 99 96 92 89 89 89 92 96 100
242 254 307 301 338 57 110 55 70 100 80 190 259 231 201 164 195 210 189 205 155 131 138 145 151 155 134 130 130 121 137 150 137 126 139 149 152 156 158 160 163 164 163 156 154 154 152 149 147 146 143 120 94 73 59 58 60 65 68 74 86 90 100 108 108 107 117 140 140 132 128 121 116 127 141 142 129 119 110 102 98 95 93 94 95 95 96 97 95 91 84 79 78 81 88 93 96
238 264 313 303 78 56 75 51 108 125 138 202 277 235 208 181 196 210 162 145 137 132 133 141 149 172 162 153 149 115 132 157 155 144 149 154 155 157 157 159 162 164 163 159 157 156 155 152 148 148 139 116 99 83 68 65 66 70 72 73 79 81 89 96 102 107 115 136 144 141 128 116 112 113 122 140 143 129 110 99 96 94 90 92 96 97 96 94 89 85 79 73 70 71 77 84 89
239 278 303 274 144 69 89 71 97 112 185 185 122 241 225 197 188 155 132 138 140 130 142 159 157 163 156 142 145 116 137 160 166 158 155 156 157 158 158 159 162 165 164 161 160 158 156 152 148 145 134 119 108 96 79 71 71 73 76 76 78 79 85 90 95 100 101 114 134 140 130 120 121 107 92 103 133 141 118 102 100 96 93 93 95 94 90 85 82 78 74 71 67 66 69 78 85
241 280 308 160 104 103 126 108 168 183 224 171 121 256 225 203 173 138 141 154 163 204 210 202 205 162 134 104 111 119 131 152 167 162 157 158 158 159 160 160 163 165 166 163 163 161 158 156 149 144 137 128 120 107 89 77 76 78 81 82 82 81 85 91 96 99 99 103 111 126 129 123 128 110 81 86 106 122 118 109 104 100 96 93 90 88 83 80 79 73 69 68 66 67 72 80 87
240 258 19 101 85 66 118 156 205 213 237 169 163 261 227 192 158 138 150 174 211 253 236 220 193 158 129 105 111 122 122 138 158 161 159 161 159 160 163 162 164 166 167 166 165 164 162 160 154 150 146 139 132 122 101 88 82 83 86 88 89 87 88 92 98 106 109 110 108 112 117 114 117 104 91 94 105 112 112 112 109 101 94 90 90 89 84 81 79 71 66 65 65 69 75 81 88
227 221 73 107 57 29 90 130 206 201 260 221 239 263 235 174 154 145 161 178 205 224 214 191 168 152 157 132 133 130 124 139 153 160 162 163 161 162 166 165 167 167 168 169 168 167 167 164 159 157 153 148 142 133 114 96 84 82 83 85 90 89 90 90 95 107 114 117 115 114 115 113 109 95 95 99 106 114 116 117 111 101 93 89 91 89 86 82 78 73 69 67 70 74 78 82 87
201 195 79 101 92 45 48 70 210 234 270 253 253 260 191 162 155 153 166 193 208 204 200 178 165 291 169 136 139 141 135 148 157 162 164 165 164 165 168 169 169 168 169 170 170 169 170 169 164 161 157 154 147 139 124 104 89 81 79 80 85 89 92 91 89 97 108 115 113 111 114 112 101 86 90 96 103 118 125 121 111 103 97 90 88 86 83 82 79 78 75 72 73 76 81 84 87
191 134 118 95 107 77 13 274 235 250 259 260 263 245 160 159 156 157 166 200 212 204 194 177 150 139 157 139 139 148 151 155 161 166 167 167 167 168 170 171 171 170 170 171 173 171 172 173 168 167 163 158 153 144 134 118 100 88 82 79 79 83 89 91 90 90 99 105 106 102 100 103 93 72 72 86 99 119 127 116 107 99 93 88 86 85 82 83 82 81 78 75 75 76 81 83 87
174 56 113 86 82 123 173 211 265 270 275 285 266 169 154 160 151 155 166 189 204 200 181 175 168 144 143 147 152 155 159 160 166 168 169 170 171 171 171 172 172 173 174 173 173 173 174 175 171 171 169 162 158 150 142 132 115 95 84 79 75 76 81 85 87 86 88 91 95 92 88 94 86 67 66 75 88 113 124 108 92 87 89 88 86 85 86 86 83 82 79 76 76 77 81 83 87
179 31 88 89 128 178 185 175 265 290 305 314 158 147 156 161 153 169 178 180 193 194 185 175 163 156 135 153 169 161 162 164 168 170 173 174 175 174 174 174 174 174 177 179 176 175 177 177 174 174 174 166 162 158 150 144 132 109 90 80 74 72 75 79 82 82 82 82 84 80 75 79 76 67 65 69 76 99 117 95 77 82 89 90 88 88 89 88 82 80 78 77 77 77 80 82 86
179 127 97 99 166 157 150 151 276 323 327 263 153 151 157 166 175 195 183 182 188 184 194 180 157 168 157 164 179 168 166 170 169 171 176 177 179 178 179 179 178 177 178 185 183 182 181 179 178 178 177 171 168 165 161 155 149 135 109 91 81 76 76 78 80 82 83 81 79 77 72 72 71 68 68 70 75 92 110 91 75 84 91 93 95 92 89 88 84 81 78 77 76 76 78 79 82
165 146 117 118 119 139 150 126 286 110 260 249 156 156 159 172 191 204 186 183 198 189 189 187 174 172 178 172 188 180 170 174 173 172 178 180 182 182 184 184 183 183 182 188 191 192 188 184 183 183 182 176 173 170 169 168 166 161 142 116 98 86 83 83 82 82 82 82 79 79 76 72 70 71 73 75 82 92 101 89 81 90 95 96 96 93 90 89 87 84 80 77 75 74 74 77 78
166 136 101 103 55 327 163 104 142 138 226 217 145 165 164 174 188 207 203 196 210 200 181 186 182 177 198 180 184 186 177 176 176 174 178 181 184 186 188 189 189 190 190 192 195 200 197 193 189 189 189 183 180 177 175 176 178 177 170 155 130 105 96 93 88 84 79 79 75 76 78 76 74 73 76 81 90 94 93 90 88 92 96 97 96 93 93 94 93 87 82 78 76 74 74 76 76
164 136 79 82 98 212 170 156 138 127 246 196 149 168 162 182 195 205 213 207 218 203 187 185 187 181 175 172 157 181 180 179 179 178 179 182 186 189 192 193 194 195 197 197 197 202 202 200 197 196 196 192 190 186 184 184 188 188 187 187 175 160 138 121 107 98 83 79 72 72 74 77 79 78 80 87 96 98 95 93 93 95 96 98 98 97 96 97 94 88 85 81 78 76 75 75 73
149 123 67 76 166 208 182 172 176 160 240 204 166 171 156 186 206 205 207 204 221 207 197 194 196 193 157 156 147 177 182 182 182 183 182 184 187 191 196 197 198 198 200 201 200 202 204 205 203 203 202 200 200 197 195 192 196 199 199 201 197 196 185 167 145 129 102 89 74 68 67 70 78 82 83 87 96 98 94 95 100 101 98 97 97 97 98 98 94 88 85 81 80 80 78 75 71
139 110 91 144 184 203 188 180 188 164 181 193 179 177 166 175 200 192 188 197 218 213 207 209 209 207 191 171 156 180 187 185 186 189 187 188 190 194 199 200 201 202 202 203 202 203 206 208 208 208 208 207 207 207 205 201 202 205 208 210 210 211 207 201 187 174 157 128 90 72 64 64 71 80 86 89 98 97 93 98 106 106 99 98 95 98 101 100 96 91 86 81 80 81 80 75 71
113 95 114 202 203 207 197 182 181 153 60 176 174 177 176 183 189 184 194 203 200 209 216 219 221 219 213 206 192 187 191 191 191 194 194 194 195 198 201 202 204 204 205 205 204 205 207 210 212 212 212 212 213 213 213 211 210 211 215 218 219 220 220 217 211 208 206 205 199 135 73 64 64 72 84 94 104 106 99 104 115 117 106 101 97 99 104 106 103 96 91 85 79 78 78 75 71
108 100 132 235 213 215 209 185 180 176 73 163 168 175 181 192 188 186 201 198 196 218 220 220 225 223 216 213 209 196 194 197 197 199 201 201 202 203 204 205 205 206 207 208 208 209 211 213 214 215 215 215 217 219 220 219 218 218 220 224 226 226 227 227 225 224 223 229 234 235 239 91 56 63 72 97 122 145 141 117 129 133 117 110 106 104 108 112 111 103 96 88 79 71 71 68 64
155 130 173 237 194 169 202 189 187 191 164 164 164 163 184 201 194 195 188 164 244 241 232 229 231 225 210 209 211 205 197 199 201 203 206 207 208 208 208 209 208 208 208 210 211 212 214 216 217 218 218 218 219 221 225 226 226 226 225 228 231 232 233 235 235 236 234 236 239 246 249 253 263 264 356 134 174 197 213 205 166 165 160 144 133 131 133 136 132 123 115 102 82 63 56 49 39
145 169 236 198 150 126 177 179 184 182 157 159 158 155 185 189 195 204 191 187 231 247 246 242 241 235 219 214 213 210 201 200 203 206 209 212 213 213 212 212 212 212 212 212 213 214 217 218 220 222 223 223 222 223 226 229 231 232 233 233 236 237 237 240 242 243 243 243 244 247 252 255 257 254 256 255 247 230 228 232 222 212 213 206 187 182 180 177 178 172 173 183 165 13 14 9 6
152 252 266 133 121 97 148 174 179 179 167 162 163 170 183 177 199 216 209 221 227 247 284 251 243 237 228 224 219 217 208 204 207 209 211 214 215 216 215 214 214 214 215 216 216 217 219 219 221 224 226 227 226 226 227 230 232 235 238 239 241 241 242 245 246 248 249 249 249 248 250 253 255 256 254 254 257 251 241 238 236 234 233 234 229 226 224 217 215 217 224 233 241 259 287 312 331
140 163 181 146 105 76 130 182 162 164 177 170 168 175 181 182 200 225 227 234 234 239 255 245 247 234 226 227 226 227 221 213 214 215 216 218 219 219 218 218 217 218 219 220 220 220 221 222 224 225 228 230 231 230 230 233 235 237 239 241 243 244 245 247 248 251 251 252 252 252 252 252 254 256 256 255 256 257 255 248 245 242 240 240 243 244 242 239 236 234 238 246 251 255 262 272 289
139 154 166 150 120 112 103 135 150 141 159 162 163 169 187 200 208 242 243 244 242 243 247 245 254 244 226 225 227 229 227 222 220 220 219 220 221 220 220 220 219 221 222 223 223 224 224 226 227 229 231 232 234 233 234 236 237 239 242 243 246 246 248 250 250 251 252 253 253 254 254 254 255 257 258 257 255 258 260 259 255 251 247 243 244 248 251 250 247 245 245 248 256 260 264 267 271
189 153 147 146 120 121 112 116 138 131 142 155 160 155 185 198 220 261 254 256 252 246 249 248 249 253 237 226 226 228 229 227 222 220 220 219 221 221 219 220 221 222 223 225 226 227 227 228 231 233 235 236 238 238 238 240 241 242 244 247 249 250 250 250 251 252 253 254 254 255 256 256 256 255 256 256 255 256 258 260 260 258 255 250 248 249 252 254 253 252 250 251 256 260 266 269 271
167 136 120 121 106 110 124 125 127 125 132 156 168 159 175 164 188 257 248 260 257 242 242 246 246 248 247 233 226 227 230 229 225 223 221 220 220 219 218 219 221 221 223 225 226 228 229 230 232 234 237 239 240 241 242 243 244 245 247 249 250 252 252 251 251 251 253 254 255 256 255 255 255 254 254 255 255 256 259 260 260 260 259 257 255 253 254 255 256 256 255 254 255 258 262 265 268
141 132 110 71 79 97 89 118 129 124 120 151 159 151 144 132 193 238 227 247 282 243 233 238 242 243 244 239 229 226 228 227 227 227 224 222 218 216 217 217 220 221 223 226 227 230 232 233 234 235 238 240 241 242 243 245 247 248 249 251 252 253 253 253 252 252 252 253 255 256 257 256 254 253 252 253 255 256 258 260 260 260 260 261 260 258 257 257 258 260 261 260 260 262 264 266 267
124 123 121 3 17 59 31 56 131 136 124 141 130 123 277 207 225 234 229 239 257 251 230 230 235 238 239 238 232 227 228 227 226 226 224 224 224 225 225 224 228 228 229 232 233 233 234 236 238 238 239 241 243 245 246 247 249 251 251 251 254 255 255 256 255 253 253 252 252 253 254 254 254 252 250 250 251 253 254 254 257 259 259 261 261 261 260 260 261 260 263 265 266 268 267 269 270
117 86 119 34 15 349 346 14 8 138 132 157 141 248 269 254 245 233 226 232 237 243 236 231 232 234 235 236 237 232 229 228 228 227 226 227 228 231 232 231 233 236 237 237 237 236 237 239 241 242 242 242 245 247 249 250 251 254 255 254 254 255 256 258 259 258 255 252 251 250 251 252 252 251 249 247 246 249 253 253 251 253 256 259 260 261 260 260 263 263 267 271 273 275 274 273 272
112 72 75 77 145 260 317 7 23 136 163 179 144 225 261 268 265 224 226 233 232 239 237 236 234 233 234 236 240 240 235 232 231 230 231 232 231 232 233 233 234 237 238 238 239 241 242 243 244 245 246 247 248 248 249 251 252 254 257 259 257 256 257 257 259 261 261 259 254 251 250 251 253 255 252 246 245 246 251 256 256 250 250 255 259 260 260 258 259 261 262 270 274 275 276 276 275
46 116 288 354 166 252 313 10 40 131 197 160 127 227 269 271 264 202 219 232 232 242 244 242 239 235 235 237 240 242 241 239 238 237 236 236 235 235 235 234 235 237 239 240 242 244 246 247 248 249 249 250 252 255 255 254 254 254 257 259 260 260 259 259 259 261 264 266 265 263 260 259 256 258 258 252 254 255 254 260 266 262 252 252 256 257 259 261 261 260 256 264 273 272 273 275 274
355 119 182 211 168 250 312 4 13 43 189 295 104 223 268 291 257 173 153 191 221 246 250 247 247 245 241 240 241 242 241 240 241 241 239 238 236 236 237 237 238 239 242 244 245 247 248 250 252 253 254 254 255 258 261 263 262 261 261 262 262 262 261 261 261 261 261 261 265 267 270 272 264 259 262 262 260 259 259 261 264 269 261 252 255 257 260 261 259 259 258 262 269 269 274 275 271
262 59 117 193 181 188 282 279 331 30 132 235 8 246 247 269 273 243 225 263 289 281 272 266 258 254 249 242 241 240 241 240 239 238 237 237 237 236 238 238 240 241 242 244 246 248 249 252 254 256 257 258 257 257 259 263 266 267 267 266 266 266 265 265 265 265 265 263 263 262 262 266 268 269 269 270 264 256 260 262 258 267 267 255 260 264 262 262 256 255 258 259 260 261 267 273 272
175 151 132 186 201 203 245 241 275 24 99 210 274 265 261 272 281 271 263 273 282 280 279 276 268 259 252 244 240 239 240 240 237 236 235 236 236 236 236 236 237 239 240 243 245 247 248 249 252 254 255 256 257 258 258 258 260 262 265 266 265 263 260 260 257 257 260 264 264 263 258 254 260 268 267 270 271 260 258 260 258 267 270 257 258 265 265 264 261 258 261 261 259 259 258 260 265
156 160 144 158 175 231 244 244 277 13 129 223 226 239 268 276 283 278 274 276 276 277 278 274 269 262 254 247 244 242 241 242 240 238 236 234 233 232 233 234 234 236 238 240 242 243 245 247 249 251 252 254 255 256 256 255 255 256 258 260 261 261 259 257 255 252 252 254 257 262 261 252 250 254 255 260 265 262 257 257 261 270 275 263 251 259 274 274 269 264 263 264 262 263 259 253 254
133 129 114 148 172 238 244 254 301 35 155 245 241 252 276 271 272 275 276 279 271 270 272 270 267 260 255 251 248 245 243 246 246 243 238 233 232 230 230 231 232 234 236 240 242 243 244 245 247 248 249 251 252 254 255 255 256 256 257 258 261 264 266 266 265 263 262 261 264 269 271 265 261 257 254 255 256 256 256 257 260 263 273 270 253 255 277 282 276 266 260 262 262 262 262 257 252
98 126 135 157 195 224 234 239 309 23 174 260 347 309 273 265 266 270 272 271 257 257 259 264 265 261 258 255 252 250 249 251 250 247 245 240 237 233 233 234 237 241 245 248 249 246 245 245 246 246 247 248 250 252 254 257 259 260 262 264 266 268 268 270 272 274 275 275 276 277 273 269 269 267 264 264 259 253 252 257 261 259 262 271 263 261 271 275 276 267 258 260 265 265 265 262 254
85 110 131 167 217 229 281 284 327 22 163 265 351 331 276 266 262 264 264 256 256 259 255 258 262 262 260 257 256 257 255 255 253 250 249 247 246 243 243 245 248 251 251 250 247 243 242 243 244 243 244 245 246 249 252 256 260 262 264 265 266 267 267 268 269 270 270 271 271 267 262 259 261 265 266 268 267 261 257 256 259 259 259 264 263 262 268 269 268 266 258 258 267 269 268 266 258
90 109 128 182 232 188 222 253 318 19 81 266 311 308 284 281 285 274 263 256 262 267 261 259 258 259 260 259 261 263 262 260 257 255 252 250 250 249 250 250 250 250 247 244 240 239 240 240 241 240 240 240 241 244 248 252 256 259 262 263 263 263 263 263 263 263 262 263 265 264 264 263 264 267 266 267 271 272 269 264 259 261 264 267 264 259 263 265 265 267 261 258 269 273 272 273 266
5 152 144 168 195 183 202 206 334 10 36 36 17 320 294 309 321 286 282 286 274 273 270 264 259 259 263 264 266 266 265 264 262 258 253 250 248 247 247 246 246 245 243 241 237 236 235 234 234 234 235 236 237 240 245 249 253 256 259 260 260 260 261 261 260 263 267 268 269 272 273 273 269 266 265 265 265 264 265 267 267 268 269 270 271 266 263 264 269 272 265 261 269 276 279 280 272
290 222 178 173 171 162 161 121 84 47 6 358 25 341 288 318 314 271 307 341 302 293 286 276 278 277 274 275 273 270 267 266 265 256 238 232 231 232 236 238 239 240 237 237 235 232 231 229 228 229 230 233 235 238 241 245 249 252 255 258 261 264 266 266 269 274 279 278 278 278 274 272 269 267 267 266 264 261 260 262 265 269 265 261 267 272 267 265 267 268 267 266 269 276 281 281 276
209 233 169 145 135 131 138 132 100 102 213 330 52 146 257 316 310 275 311 326 301 301 296 302 333 340 315 303 290 279 272 267 259 242 218 211 212 214 221 225 226 228 228 229 230 229 228 226 226 227 229 232 234 236 238 242 245 249 254 259 264 268 270 273 280 281 280 278 277 277 273 271 270 269 269 269 269 268 266 264 262 264 263 260 267 274 271 271 270 267 266 266 267 270 273 277 280
208 229 130 129 128 136 147 120 101 178 213 331 21 109 210 300 281 276 323 319 300 305 306 332 5 21 19 5 338 307 278 255 234 218 209 204 200 198 203 209 214 219 221 222 223 223 223 223 223 225 227 230 232 233 234 237 243 248 253 260 264 269 274 280 283 280 277 276 274 274 274 274 272 270 269 268 268 266 264 264 262 261 260 261 266 269 269 271 271 270 268 266 267 267 270 277 283
243 205 124 134 129 127 126 100 95 14 13 292 329 46 168 269 276 300 354 332 296 301 302 323 4 35 44 45 43 39 70 178 173 172 170 166 166 168 174 187 199 207 212 213 213 212 212 212 213 214 217 220 222 223 225 230 238 247 255 263 270 276 283 285 284 281 280 279 278 278 276 275 275 274 273 270 269 265 261 262 262 259 257 257 260 264 267 268 268 269 270 269 268 269 273 275 275
173 148 102 85 76 80 82 87 98 44 36 233 274 21 163 264 285 307 10 317 269 284 290 297 353 40 45 46 54 69 95 119 130 136 138 138 136 137 138 140 147 155 167 176 181 184 185 186 188 191 195 200 206 209 216 227 238 251 262 272 279 285 287 285 284 284 284 283 282 282 280 279 278 275 273 271 269 266 263 262 260 257 257 257 259 263 267 268 268 269 270 268 267 270 275 273 271
141 126 82 68 41 36 51 51 79 66 316 249 257 327 75 268 280 263 220 221 230 253 290 294 353 41 46 44 56 76 98 109 115 119 123 124 121 118 115 111 112 114 122 133 139 144 146 147 149 151 157 161 168 180 195 219 241 262 276 285 290 292 291 288 287 288 288 287 286 285 283 280 277 274 272 269 266 264 262 261 260 258 258 259 258 260 262 263 266 269 270 269 269 272 275 273 271
119 101 97 87 13 12 28 360 41 104 252 261 272 310 122 215 260 247 232 242 222 197 187 254 324 15 39 47 63 85 102 108 111 113 115 117 115 110 108 105 103 104 106 111 115 117 119 118 118 118 117 118 118 118 117 112 94 347 319 314 311 306 300 296 295 294 291 288 286 283 280 277 275 273 271 269 266 265 264 262 261 261 259 257 255 255 257 258 260 262 263 264 265 266 269 270 271
77 106 116 102 23 18 4 310 332 207 241 270 284 235 179 233 251 252 252 255 241 222 216 250 299 347 32 48 74 99 111 113 112 114 114 115 113 109 108 105 103 104 103 104 105 106 106 105 105 104 103 101 98 94 90 81 70 50 24 1 340 324 314 305 300 296 290 286 283 279 277 275 274 273 272 271 270 267 264 261 259 259 258 256 254 253 253 254 255 256 257 259 260 261 263 266 270
133 141 138 134 123 116 231 259 281 252 250 284 274 241 248 264 262 248 244 247 245 236 239 264 293 341 33 54 88 106 115 117 115 115 114 112 110 107 107 106 105 105 105 105 105 104 104 103 102 100 98 94 89 84 76 65 54 37 18 1 345 331 321 311 301 294 288 284 282 280 278 276 274 273 272 271 269 264 260 258 257 256 256 255 254 253 252 252 252 253 254 256 257 258 259 261 265
171 161 130 146 155 153 197 212 201 227 254 295 284 245 192 206 249 236 238 262 261 245 251 264 271 332 52 81 104 110 114 116 116 115 112 109 108 108 107 106 105 105 104 105 104 102 100 97 94 92 88 83 76 70 61 48 29 7 352 342 335 330 324 317 310 301 294 288 284 281 279 278 277 276 274 271 267 264 261 260 259 258 257 257 256 255 254 253 253 254 255 257 258 258 257 259 261
226 110 106 161 181 137 135 175 175 171 150 297 259 237 216 217 271 265 263 283 266 240 248 247 238 187 93 110 115 113 114 114 115 114 112 110 109 109 108 105 103 102 101 101 99 96 92 86 81 75 67 58 44 29 14 357 342 334 333 330 328 329 328 326 321 314 305 297 290 286 283 282 281 280 279 277 274 271 269 267 265 263 262 261 261 260 260 260 260 260 261 262 262 261 259 261 263
161 119 163 210 161 115 114 169 64 84 166 258 220 247 288 313 291 299 338 284 261 254 236 214 208 162 122 123 120 117 116 115 115 113 111 111 110 108 105 103 101 100 99 98 95 92 85 76 64 48 32 17 6 355 345 336 331 327 324 323 321 321 321 320 320 318 312 304 295 289 285 283 283 282 280 279 278 277 277 276 275 274 273 271 270 269 268 267 266 265 265 265 266 265 264 266 267
123 173 196 179 115 98 112 141 17 46 225 275 264 231 282 327 266 323 11 220 251 276 238 197 184 150 132 128 123 120 117 115 115 114 113 113 110 108 106 103 102 100 98 95 91 86 77 64 41 26 12 2 357 351 343 331 322 317 314 313 313 312 313 313 314 314 312 309 299 289 283 281 281 280 278 278 279 280 281 281 281 281 282 281 280 279 276 274 271 269 269 269 269 267 266 267 268
107 172 158 116 137 165 110 134 154 128 224 275 304 273 261 204 218 301 275 211 224 235 213 185 165 148 139 133 127 121 117 116 118 117 117 115 111 109 107 104 100 95 90 81 73 63 49 29 11 3 355 351 350 345 340 325 310 307 307 308 308 309 311 313 315 314 313 313 307 298 289 283 277 276 276 277 279 281 281 281 281 281 281 281 281 281 280 278 277 276 275 275 274 271 270 270 270
45 114 118 81 131 163 166 149 163 177 192 239 309 326 258 226 214 215 225 219 201 188 182 181 170 153 144 140 132 123 120 122 124 123 120 117 114 112 107 102 95 83 71 55 44 24 5 355 349 346 343 343 343 340 336 323 307 303 304 306 308 311 316 319 320 319 318 316 313 310 305 298 291 285 282 280 280 280 280 280 280 279 278 278 278 278 278 278 278 278 279 279 279 278 276 277 277
113 133 161 176 78 117 170 90 116 143 158 183 245 296 267 249 207 203 224 226 191 180 166 172 171 155 146 143 135 128 127 128 128 125 121 117 114 108 100 91 76 64 48 27 9 347 338 335 330 331 332 333 332 331 329 319 309 305 305 307 311 316 322 326 326 325 323 320 318 317 314 312 310 303 297 292 289 286 283 281 280 279 279 278 278 278 278 279 279 280 281 281 282 282 281 283 283
162 175 183 175 146 121 149 245 247 120 138 169 169 251 270 255 199 210 226 216 210 206 175 165 166 155 147 144 138 133 132 131 129 124 119 115 109 102 94 82 70 54 22 355 341 329 324 320 321 324 325 327 328 326 323 319 314 311 311 315 320 326 331 334 335 333 331 328 325 323 321 319 318 314 310 306 301 296 291 289 287 285 285 283 283 282 281 281 281 282 282 282 282 282 283 284 284